| time (UTC) | temp F | wind direction | speed MPH | gust MPH | rain 1hr in | rain 24hr in | rain mn in | humidity % | barometer mb |
| 20260510010735 | 64 | 189 | 3.0 | 6.0 | 0.00 | 0.00 | 0.00 | 65 | 1015.0 |
| 20260510005731 | 65 | 190 | 0.0 | 6.0 | 0.00 | 0.00 | 0.00 | 58 | 1015.2 |
| 20260510003638 | 66 | 37 | 1.0 | 6.0 | 0.00 | 0.00 | 0.00 | 55 | 1015.3 |
| 20260510001437 | 66 | 336 | 2.0 | 4.0 | 0.00 | 0.00 | 0.00 | 55 | 1015.5 |
| 20260510000449 | 66 | 34 | 1.0 | 8.0 | 0.00 | 0.00 | 0.00 | 57 | 1015.7 |
| 20260509235511 | 65 | 47 | 3.0 | 8.0 | 0.00 | 0.00 | 0.00 | 58 | 1015.7 |
| 20260509234444 | 65 | 39 | 4.0 | 7.0 | 0.00 | 0.00 | 0.00 | 58 | 1015.8 |
| 20260509233432 | 65 | 46 | 2.0 | 8.0 | 0.00 | 0.00 | 0.00 | 59 | 1016.0 |
| 20260509231230 | 66 | 34 | 1.0 | 8.0 | 0.00 | 0.00 | 0.00 | 60 | 1016.3 |
| 20260509225110 | 66 | 42 | 2.0 | 4.0 | 0.00 | 0.00 | 0.00 | 61 | 1016.7 |
| 20260509224117 | 67 | 296 | 1.0 | 3.0 | 0.00 | 0.00 | 0.00 | 63 | 1016.8 |
| 20260509223111 | 65 | 209 | 0.0 | 6.0 | 0.00 | 0.00 | 0.00 | 63 | 1017.1 |
| 20260509220854 | 65 | 340 | 2.0 | 7.0 | 0.00 | 0.00 | 0.00 | 66 | 1017.5 |
| 20260509215853 | 65 | 290 | 2.0 | 11.0 | 0.00 | 0.00 | 0.00 | 64 | 1017.6 |
| 20260509214833 | 64 | 228 | 4.0 | 11.0 | 0.00 | 0.00 | 0.00 | 68 | 1017.7 |
| 20260509213809 | 63 | 280 | 4.0 | 9.0 | 0.00 | 0.00 | 0.00 | 68 | 1017.7 |
| 20260509212805 | 63 | 257 | 2.0 | 8.0 | 0.00 | 0.00 | 0.00 | 67 | 1017.8 |
| 20260509211828 | 63 | 86 | 2.0 | 6.0 | 0.00 | 0.00 | 0.00 | 68 | 1017.9 |
| 20260509210834 | 63 | 273 | 3.0 | 9.0 | 0.00 | 0.00 | 0.00 | 71 | 1018.0 |
| 20260509205822 | 61 | 282 | 6.0 | 11.0 | 0.00 | 0.00 | 0.00 | 73 | 1018.3 |
| 20260509203634 | 61 | 265 | 6.0 | 10.0 | 0.00 | 0.00 | 0.00 | 73 | 1018.4 |
| 20260509202657 | 60 | 290 | 5.0 | 9.0 | 0.00 | 0.00 | 0.00 | 74 | 1018.3 |
| 20260509201641 | 61 | 294 | 5.0 | 9.0 | 0.00 | 0.00 | 0.00 | 74 | 1018.2 |
| 20260509200643 | 61 | 277 | 5.0 | 8.0 | 0.00 | 0.00 | 0.00 | 73 | 1018.3 |
| 20260509195638 | 61 | 238 | 4.0 | 8.0 | 0.00 | 0.00 | 0.00 | 73 | 1018.5 |
| 20260509194643 | 61 | 270 | 4.0 | 8.0 | 0.00 | 0.00 | 0.00 | 75 | 1018.6 |
| 20260509193640 | 61 | 269 | 4.0 | 7.0 | 0.00 | 0.00 | 0.00 | 76 | 1018.6 |
| 20260509192640 | 61 | 238 | 3.0 | 7.0 | 0.00 | 0.00 | 0.00 | 74 | 1018.7 |
| 20260509191615 | 60 | 281 | 2.0 | 6.0 | 0.00 | 0.00 | 0.00 | 72 | 1018.8 |
| 20260509190629 | 62 | 299 | 1.0 | 4.0 | 0.00 | 0.00 | 0.00 | 72 | 1018.9 |
| 20260509185616 | 61 | 0 | 2.0 | 4.0 | 0.00 | 0.00 | 0.00 | 70 | 1019.0 |
| 20260509184630 | 61 | 15 | 2.0 | 5.0 | 0.00 | 0.00 | 0.00 | 71 | 1019.1 |
| 20260509183623 | 61 | 290 | 2.0 | 5.0 | 0.00 | 0.00 | 0.00 | 72 | 1019.1 |
| 20260509181453 | 61 | 237 | 1.0 | 4.0 | 0.00 | 0.00 | 0.00 | 70 | 1019.1 |
| 20260509180445 | 61 | 200 | 1.0 | 6.0 | 0.00 | 0.00 | 0.00 | 73 | 1019.2 |
| 20260509175452 | 61 | 15 | 1.0 | 6.0 | 0.00 | 0.00 | 0.00 | 73 | 1019.2 |
| 20260509174509 | 59 | 280 | 1.0 | 5.0 | 0.00 | 0.00 | 0.00 | 75 | 1019.2 |
| 20260509173511 | 60 | 41 | 1.0 | 3.0 | 0.00 | 0.00 | 0.00 | 76 | 1019.3 |
| 20260509172447 | 60 | 296 | 1.0 | 3.0 | 0.00 | 0.00 | 0.00 | 75 | 1019.4 |
| 20260509171422 | 60 | 49 | 1.0 | 4.0 | 0.00 | 0.00 | 0.00 | 74 | 1019.4 |
| 20260509170352 | 58 | 311 | 1.0 | 3.0 | 0.00 | 0.00 | 0.00 | 77 | 1019.5 |
| 20260509165355 | 58 | 323 | 1.0 | 3.0 | 0.00 | 0.00 | 0.00 | 76 | 1019.5 |
| 20260509164340 | 58 | 113 | 0.0 | 3.0 | 0.00 | 0.00 | 0.00 | 75 | 1019.6 |
| 20260509163322 | 58 | 53 | 1.0 | 3.0 | 0.00 | 0.00 | 0.00 | 76 | 1019.6 |
| 20260509162329 | 57 | 25 | 1.0 | 3.0 | 0.00 | 0.00 | 0.00 | 79 | 1019.7 |
| 20260509161336 | 58 | 333 | 0.0 | 4.0 | 0.00 | 0.00 | 0.00 | 79 | 1019.7 |
| 20260509160311 | 57 | 260 | 0.0 | 4.0 | 0.00 | 0.00 | 0.00 | 79 | 1019.9 |
| 20260509155258 | 57 | 275 | 1.0 | 4.0 | 0.00 | 0.00 | 0.00 | 82 | 1020.0 |
| 20260509154240 | 56 | 32 | 0.0 | 4.0 | 0.00 | 0.00 | 0.00 | 81 | 1020.0 |
| 20260509153213 | 56 | 260 | 0.0 | 2.0 | 0.00 | 0.00 | 0.00 | 82 | 1020.1 |
| 20260509152228 | 55 | 111 | 0.0 | 2.0 | 0.00 | 0.00 | 0.00 | 84 | 1020.0 |
| 20260509151240 | 54 | 329 | 0.0 | 2.0 | 0.00 | 0.00 | 0.00 | 84 | 1020.1 |
| 20260509145133 | 52 | 309 | 0.0 | 0.0 | 0.00 | 0.00 | 0.00 | 90 | 1020.2 |
| 20260509144112 | 52 | 309 | 0.0 | 0.0 | 0.00 | 0.00 | 0.00 | 91 | 1020.3 |
| 20260509143123 | 52 | 116 | 0.0 | 0.0 | 0.00 | 0.00 | 0.00 | 90 | 1020.2 |
| 20260509142132 | 52 | 116 | 0.0 | 0.0 | 0.00 | 0.00 | 0.00 | 90 | 1020.3 |
| 20260509134948 | 51 | 116 | 0.0 | 0.0 | 0.00 | 0.00 | 0.00 | 92 | 1020.5 |
| 20260509133915 | 51 | 116 | 0.0 | 0.0 | 0.00 | 0.00 | 0.00 | 91 | 1020.6 |
| 20260509132844 | 50 | 116 | 0.0 | 0.0 | 0.00 | 0.00 | 0.00 | 91 | 1020.4 |
| 20260509131908 | 50 | 130 | 0.0 | 0.0 | 0.00 | 0.00 | 0.00 | 91 | 1020.4 |
| 20260509130843 | 50 | 134 | 0.0 | 0.0 | 0.00 | 0.00 | 0.00 | 92 | 1020.5 |
| 20260509125855 | 50 | 134 | 0.0 | 0.0 | 0.00 | 0.00 | 0.00 | 91 | 1020.5 |
| 20260509124909 | 50 | 134 | 0.0 | 0.0 | 0.00 | 0.00 | 0.00 | 90 | 1020.3 |
| 20260509123848 | 50 | 134 | 0.0 | 0.0 | 0.00 | 0.00 | 0.00 | 90 | 1020.2 |
| 20260509122906 | 50 | 134 | 0.0 | 0.0 | 0.00 | 0.00 | 0.00 | 90 | 1020.3 |
| 20260509120814 | 50 | 161 | 0.0 | 0.0 | 0.00 | 0.00 | 0.00 | 90 | 1020.4 |
| 20260509115820 | 50 | 153 | 0.0 | 0.0 | 0.00 | 0.00 | 0.00 | 90 | 1020.5 |
| 20260509114840 | 51 | 153 | 0.0 | 1.0 | 0.00 | 0.00 | 0.00 | 89 | 1020.6 |
| 20260509113827 | 50 | 153 | 0.0 | 0.0 | 0.00 | 0.00 | 0.00 | 89 | 1020.6 |
| 20260509112805 | 50 | 153 | 0.0 | 0.0 | 0.00 | 0.00 | 0.00 | 90 | 1020.6 |
| 20260509105528 | 50 | 153 | 0.0 | 0.0 | 0.00 | 0.00 | 0.00 | 89 | 1020.5 |
| 20260509103432 | 50 | 153 | 0.0 | 0.0 | 0.00 | 0.00 | 0.00 | 88 | 1020.4 |
| 20260509102443 | 50 | 153 | 0.0 | 0.0 | 0.00 | 0.00 | 0.00 | 89 | 1020.4 |
| 20260509101425 | 50 | 153 | 0.0 | 0.0 | 0.00 | 0.00 | 0.00 | 88 | 1020.4 |
| 20260509100402 | 50 | 154 | 0.0 | 1.0 | 0.00 | 0.00 | 0.00 | 88 | 1020.4 |
| 20260509095419 | 50 | 119 | 0.0 | 0.0 | 0.00 | 0.00 | 0.00 | 88 | 1020.4 |
| 20260509093258 | 49 | 141 | 0.0 | 0.0 | 0.00 | 0.00 | 0.00 | 89 | 1020.3 |
| 20260509091133 | 50 | 157 | 0.0 | 0.0 | 0.00 | 0.00 | 0.00 | 88 | 1020.3 |
| 20260509090152 | 50 | 157 | 0.0 | 0.0 | 0.00 | 0.00 | 0.00 | 88 | 1020.2 |
| 20260509085148 | 50 | 157 | 0.0 | 0.0 | 0.00 | 0.00 | 0.00 | 88 | 1020.3 |
| 20260509084147 | 50 | 131 | 0.0 | 0.0 | 0.00 | 0.00 | 0.00 | 86 | 1020.4 |
| 20260509083123 | 51 | 90 | 0.0 | 0.0 | 0.00 | 0.00 | 0.00 | 85 | 1020.4 |
| 20260509082112 | 51 | 123 | 1.0 | 3.0 | 0.00 | 0.00 | 0.00 | 84 | 1020.5 |
| 20260509081052 | 51 | 144 | 0.0 | 1.0 | 0.00 | 0.00 | 0.00 | 86 | 1020.5 |
| 20260509073833 | 50 | 161 | 0.0 | 2.0 | 0.00 | 0.00 | 0.00 | 85 | 1020.5 |
| 20260509072803 | 50 | 112 | 0.0 | 1.0 | 0.00 | 0.00 | 0.00 | 84 | 1020.4 |
| 20260509071737 | 50 | 112 | 0.0 | 0.0 | 0.00 | 0.00 | 0.00 | 84 | 1020.4 |
| 20260509070738 | 51 | 112 | 0.0 | 0.0 | 0.00 | 0.00 | 0.00 | 83 | 1020.3 |
| 20260509065734 | 50 | 112 | 0.0 | 0.0 | 0.00 | 0.00 | 0.00 | 85 | 1020.4 |
| 20260509064737 | 50 | 112 | 0.0 | 0.0 | 0.00 | 0.00 | 0.00 | 84 | 1020.4 |
| 20260509063751 | 50 | 112 | 0.0 | 1.0 | 0.00 | 0.00 | 0.00 | 84 | 1020.4 |
| 20260509062738 | 50 | 112 | 0.0 | 1.0 | 0.00 | 0.00 | 0.00 | 84 | 1020.4 |
| 20260509061733 | 50 | 112 | 0.0 | 1.0 | 0.00 | 0.00 | 0.00 | 84 | 1020.4 |
| 20260509060703 | 51 | 112 | 0.0 | 1.0 | 0.00 | 0.00 | 0.00 | 83 | 1020.3 |
| 20260509053414 | 52 | 124 | 0.0 | 4.0 | 0.00 | 0.00 | 0.00 | 80 | 1020.3 |
| 20260509052425 | 53 | 118 | 1.0 | 4.0 | 0.00 | 0.00 | 0.00 | 79 | 1020.3 |
| 20260509051442 | 53 | 117 | 1.0 | 3.0 | 0.00 | 0.00 | 0.00 | 78 | 1020.2 |
| 20260509045249 | 54 | 117 | 0.0 | 2.0 | 0.00 | 0.00 | 0.00 | 76 | 1020.2 |
| 20260509044246 | 54 | 136 | 0.0 | 4.0 | 0.00 | 0.00 | 0.00 | 76 | 1020.1 |
| 20260509043254 | 54 | 175 | 1.0 | 4.0 | 0.00 | 0.00 | 0.00 | 76 | 1020.0 |
| 20260509042315 | 54 | 246 | 0.0 | 3.0 | 0.00 | 0.00 | 0.00 | 77 | 1020.1 |
| 20260509040159 | 54 | 118 | 0.0 | 3.0 | 0.00 | 0.00 | 0.00 | 75 | 1019.9 |
| 20260509034116 | 54 | 113 | 1.0 | 5.0 | 0.00 | 0.00 | 0.00 | 75 | 1019.8 |
| 20260509033054 | 54 | 178 | 2.0 | 6.0 | 0.00 | 0.00 | 0.00 | 74 | 1019.7 |
| 20260509032020 | 54 | 204 | 3.0 | 7.0 | 0.00 | 0.00 | 0.00 | 73 | 1019.6 |
| 20260509024715 | 54 | 205 | 5.0 | 12.0 | 0.00 | 0.00 | 0.00 | 73 | 1019.4 |
| 20260509023650 | 55 | 188 | 6.0 | 12.0 | 0.00 | 0.00 | 0.00 | 73 | 1019.4 |
| 20260509022624 | 55 | 192 | 5.0 | 9.0 | 0.00 | 0.00 | 0.00 | 72 | 1019.4 |
| 20260509021556 | 55 | 201 | 5.0 | 9.0 | 0.00 | 0.00 | 0.00 | 71 | 1019.4 |
| 20260509020614 | 55 | 198 | 5.0 | 13.0 | 0.00 | 0.00 | 0.00 | 71 | 1019.4 |
| 20260509015608 | 55 | 223 | 8.0 | 13.0 | 0.00 | 0.00 | 0.00 | 71 | 1019.4 |
| 20260509014544 | 55 | 215 | 9.0 | 13.0 | 0.00 | 0.00 | 0.00 | 70 | 1019.5 |
| 20260509013516 | 56 | 213 | 7.0 | 13.0 | 0.00 | 0.00 | 0.00 | 69 | 1019.3 |
| 20260509012535 | 56 | 172 | 6.0 | 13.0 | 0.00 | 0.00 | 0.00 | 69 | 1019.4 |
| 20260509011539 | 56 | 220 | 8.0 | 15.0 | 0.00 | 0.00 | 0.00 | 67 | 1019.4 |